This is the latest recevied weather packets stored in our database for station/object KO4LFZ. If no packets are shown the sender has not sent any weather packets the latest 10 day(s).
| Time | Temp. | Humidity | Pressure | Rain* | Wind** | Luminosity | Snow |
|---|---|---|---|---|---|---|---|
| 1778192624 | 18.89° C | 42% | 1015.3 hPa | 0 mm | - | 284 W/m² | - |
| 1778192321 | 18.89° C | 42% | 1015.3 hPa | 0 mm | - | 292 W/m² | - |
| 1778192018 | 19.44° C | 41% | 1015.3 hPa | 0 mm | - | 293 W/m² | - |
| 1778191714 | 19.44° C | 41% | 1015.3 hPa | 0 mm | - | 313 W/m² | - |
| 1778191412 | 18.89° C | 42% | 1015.3 hPa | 0 mm | - | 294 W/m² | - |
| 1778191107 | 19.44° C | 38% | 1015.5 hPa | 0 mm | - | 319 W/m² | - |
| 1778190805 | 19.44° C | 36% | 1015.3 hPa | 0 mm | - | 347 W/m² | - |
| 1778190502 | 19.44° C | 38% | 1015.4 hPa | 0 mm | - | 386 W/m² | - |
| 1778190200 | 18.89° C | 39% | 1015.4 hPa | 0 mm | - | 421 W/m² | - |
| 1778189894 | 18.89° C | 41% | 1015.4 hPa | 0 mm | - | 430 W/m² | - |
| 1778189591 | 18.89° C | 42% | 1015.3 hPa | 0 mm | - | 418 W/m² | - |
| 1778189289 | 20° C | 38% | 1015.3 hPa | 0 mm | - | 430 W/m² | - |
| 1778188984 | 18.89° C | 38% | 1015.4 hPa | 0 mm | - | 452 W/m² | - |
| 1778188681 | 19.44° C | 40% | 1015.4 hPa | 0 mm | - | 461 W/m² | - |
| 1778188377 | 18.89° C | 40% | 1015.2 hPa | 0 mm | - | 477 W/m² | - |
| 1778188074 | 18.89° C | 42% | 1015.2 hPa | 0 mm | - | 472 W/m² | - |
| 1778187771 | 18.89° C | 41% | 1015.1 hPa | 0 mm | - | 470 W/m² | - |
| 1778187468 | 19.44° C | 38% | 1015 hPa | 0 mm | - | 511 W/m² | - |
| 1778187164 | 19.44° C | 39% | 1015.2 hPa | 0 mm | - | 550 W/m² | - |
| 1778186860 | 18.89° C | 40% | 1015.4 hPa | 0 mm | - | 557 W/m² | - |
| 1778186559 | 18.89° C | 40% | 1015.5 hPa | 0 mm | - | 575 W/m² | - |
| 1778186256 | 18.89° C | 40% | 1015.5 hPa | 0 mm | - | 575 W/m² | - |
| 1778185953 | 18.89° C | 40% | 1015.4 hPa | 0 mm | - | 596 W/m² | - |
| 1778185649 | 18.89° C | 42% | 1015.4 hPa | 0 mm | - | 614 W/m² | - |
| 1778185341 | 18.33° C | 41% | 1015.5 hPa | 0 mm | - | 637 W/m² | - |
* Rain latest hour (hover to see other rain measurements)
** Current wind speed in m/s (hover to see current wind gust speed)